Location: Unspecified
(0.0000°N, 0.0000°E)
Time: 00:32:41
(UTC+00:00)

Envisat - Pass Details

Date: 19 June 2017
Orbit: 764 x 766 km, 98.2° (Epoch: 19 August)

Event Time Altitude Azimuth Distance (km) Brightness Sun altitude
Exits shadow 19:46:34 17° 40° (NE) 1,875 4.9 -24.0°
Drops below altitude 10° 19:48:06 10° 26° (NNE) 2,293 5.5 -24.3°
Sets 19:50:48 0° 12° (NNE) 3,216 6.4 -24.9°
